Simultaneous Nadir Overpasses (SNOs) Predictions

Prediction of SNOs between AQUA and METOP-A Satellite Orbit:

Table of predicted SNOs for the next 14.0 days since TLE Epoch: 3/30/2012
Index Date (AQUA) Time (AQUA) AQUA Lat,Lon Date (METOP-A) Time (METOP-A) METOP-A Lat,Lon Distance(km) Time Diff (sec)
1 03/31/2012 16:26:56 -73.79, 107.53 03/31/2012 16:26:15 -73.76, 107.52 3.29 41
2 03/31/2012 17:16:25 73.86, -84.99 03/31/2012 17:16:53 73.85, -84.93 2.27 28
3 04/03/2012 12:01:13 -73.77, 174.01 04/03/2012 12:00:35 -73.80, 174.02 3.14 38
4 04/03/2012 12:50:42 73.85, -18.52 04/03/2012 12:51:14 73.84, -18.55 0.84 32
5 04/06/2012 07:35:31 -73.78,-119.58 04/06/2012 07:34:57 -73.78,-119.60 0.70 34
6 04/06/2012 08:25:00 73.86, 47.88 04/06/2012 08:25:35 73.88, 47.95 2.97 35
7 04/09/2012 03:09:48 -73.78, -53.13 04/09/2012 03:09:19 -73.77, -53.22 2.88 29
8 04/09/2012 03:59:17 73.86, 114.32 04/09/2012 03:59:57 73.86, 114.33 0.63 40
9 04/11/2012 22:44:04 -73.80, 13.24 04/11/2012 22:43:39 -73.80, 13.27 0.93 25
10 04/11/2012 23:33:32 73.84,-179.20 04/11/2012 23:34:18 73.85,-179.29 2.91 46




NCC Satellite Simultaneous Nadir Overpasses (SNOs) Prediction Service
